TimeCDT,TemperatureF,Dew PointF,Humidity,Sea Level PressureIn,VisibilityMPH,Wind Direction,Wind SpeedMPH,Gust SpeedMPH,PrecipitationIn,Events,Conditions,WindDirDegrees,DateUTC
12:53 AM,71.1,66.9,87,29.99,10.0,South,5.8,-,N/A,,Clear,180,2012-10-10 05:53:00
1:53 AM,68.0,66.0,93,30.00,10.0,Calm,Calm,-,N/A,,Clear,0,2012-10-10 06:53:00
2:53 AM,69.1,66.0,90,30.01,10.0,Calm,Calm,-,N/A,,Mostly Cloudy,0,2012-10-10 07:53:00
3:07 AM,69.8,66.2,88,30.02,10.0,Calm,Calm,-,N/A,,Mostly Cloudy,0,2012-10-10 08:07:00
3:53 AM,70.0,68.0,93,30.02,10.0,ENE,3.5,-,N/A,,Overcast,60,2012-10-10 08:53:00
4:39 AM,69.8,66.2,88,30.03,10.0,ESE,3.5,-,N/A,,Mostly Cloudy,120,2012-10-10 09:39:00
4:53 AM,69.1,66.9,93,30.03,10.0,Calm,Calm,-,N/A,,Mostly Cloudy,0,2012-10-10 09:53:00
5:37 AM,69.8,66.2,88,30.05,9.0,East,3.5,-,N/A,,Mostly Cloudy,80,2012-10-10 10:37:00
5:53 AM,69.1,66.9,93,30.04,9.0,Calm,Calm,-,N/A,,Mostly Cloudy,0,2012-10-10 10:53:00
6:00 AM,69.8,66.2,88,30.05,8.0,SE,4.6,-,N/A,,Overcast,130,2012-10-10 11:00:00
6:44 AM,68.0,66.2,94,30.06,8.0,ESE,3.5,-,N/A,,Scattered Clouds,120,2012-10-10 11:44:00
6:53 AM,68.0,66.0,93,30.05,7.0,ESE,3.5,-,N/A,,Partly Cloudy,120,2012-10-10 11:53:00
7:53 AM,69.1,66.9,93,30.07,6.0,SE,3.5,-,N/A,,Scattered Clouds,130,2012-10-10 12:53:00
8:53 AM,72.0,69.1,91,30.09,9.0,ESE,4.6,-,N/A,,Clear,120,2012-10-10 13:53:00
9:24 AM,73.4,69.8,88,30.12,10.0,ESE,3.5,-,N/A,,Mostly Cloudy,120,2012-10-10 14:24:00
9:53 AM,75.0,71.1,87,30.11,10.0,ESE,3.5,-,N/A,,Overcast,120,2012-10-10 14:53:00
10:46 AM,78.8,71.6,78,30.13,10.0,South,3.5,-,N/A,,Overcast,170,2012-10-10 15:46:00
10:53 AM,78.1,72.0,81,30.12,10.0,SSE,4.6,-,N/A,,Overcast,160,2012-10-10 15:53:00
11:06 AM,78.8,71.6,78,30.13,10.0,SSW,3.5,-,N/A,,Overcast,210,2012-10-10 16:06:00
11:53 AM,82.0,72.0,71,30.11,10.0,Calm,Calm,-,N/A,,Mostly Cloudy,0,2012-10-10 16:53:00
12:01 PM,82.4,71.6,70,30.12,10.0,South,3.5,-,N/A,,Mostly Cloudy,180,2012-10-10 17:01:00
12:53 PM,84.0,71.1,65,30.10,10.0,Calm,Calm,-,N/A,,Scattered Clouds,0,2012-10-10 17:53:00
1:07 PM,84.2,71.6,66,30.10,10.0,West,6.9,-,N/A,,Mostly Cloudy,270,2012-10-10 18:07:00
1:15 PM,84.2,71.6,66,30.09,10.0,Calm,Calm,-,N/A,,Mostly Cloudy,0,2012-10-10 18:15:00
1:53 PM,86.0,71.1,61,30.06,10.0,Calm,Calm,-,N/A,,Overcast,0,2012-10-10 18:53:00
2:53 PM,87.1,69.1,55,30.02,10.0,East,8.1,-,N/A,,Mostly Cloudy,100,2012-10-10 19:53:00
3:53 PM,89.1,68.0,50,30.01,10.0,SE,3.5,-,N/A,,Clear,130,2012-10-10 20:53:00
4:53 PM,89.1,68.0,50,30.00,10.0,SE,5.8,-,N/A,,Clear,130,2012-10-10 21:53:00
5:53 PM,88.0,66.9,49,30.01,10.0,East,6.9,-,N/A,,Clear,100,2012-10-10 22:53:00
6:53 PM,84.9,66.9,55,30.02,10.0,East,4.6,-,N/A,,Scattered Clouds,100,2012-10-10 23:53:00
7:53 PM,82.9,68.0,60,30.04,10.0,ESE,5.8,-,N/A,,Clear,110,2012-10-11 00:53:00
8:53 PM,82.0,69.1,65,30.06,10.0,SSE,12.7,-,N/A,,Scattered Clouds,150,2012-10-11 01:53:00
9:18 PM,80.6,71.6,74,30.08,10.0,SSE,15.0,21.9,N/A,,Overcast,160,2012-10-11 02:18:00
9:38 PM,80.6,71.6,74,30.09,10.0,South,13.8,21.9,N/A,,Mostly Cloudy,170,2012-10-11 02:38:00
9:53 PM,80.1,71.1,74,30.09,10.0,SSE,9.2,-,N/A,,Partly Cloudy,160,2012-10-11 02:53:00
10:53 PM,77.0,71.1,82,30.09,10.0,South,4.6,-,N/A,,Clear,170,2012-10-11 03:53:00
11:53 PM,75.0,71.1,87,30.08,10.0,South,3.5,-,N/A,,Clear,170,2012-10-11 04:53:00